STARLINK-3115 (49447 NORAD) Tracking and Keplerian Element Data

This shows tracking and keplerian element data for the satellite.

Feedback or suggestion? Click here.




ElementValue
Catalog49447
NameSTARLINK-3115
Epoch Orbit485
Epoch Day340.25001157
Epoch Year2021
RAAN20.5663
Inclination53.2193
Eccentricity0.0002233
Argument of Perigee36.8159
Mean Anonmoly133.3337
Mean Motion15.73262925
Decay Rate-0.00051774
L11 49447U 21104AR 21340.25001157 -.00051774 00000+0 -36570-3 0 9996
L22 49447 53.2193 20.5663 0002233 36.8159 133.3337 15.73262925 4859

Live tracking and technical data element details for STARLINK-3115 (NORAD 49447). STARLINK-3115 can be tracked NOW for your location showing map with azimuth and elevation plus other details from your city location.

Track the satellite on the map from your city or location and see movement details for azimuth, elevation, latitude, longitude, range, height, and movement on the map or in text.







IsCatalogInMostPopularTable: catalog: 49447, numindb: 1
Update: records affected: 1



GetName: 49447 STARLINK-3115

Hit Count: updated at: Wed, 08 Dec 2021 16:08:53 GMT